Location: Newark
(48.4472°N, 1.4892°E)
Time: 01:34:29
(UTC+00:00)

Vanguard 2 Rocket - Pass Details

Date: 18 November 2019
Orbit: 554 x 3326 km, 32.9° (Epoch: 11 December)

Event Time Altitude Azimuth Distance (km) Brightness Sun altitude
Exits shadow 03:44:50 21° 172° (S) 2,249 8.8 -33.0°
Drops below altitude 10° 03:50:40 10° 131° (SE) 3,645 10.4 -32.1°
Sets 03:55:35 0° 118° (ESE) 5,190 11.5 -31.3°
